Tracking 31027 objects as of 19-Jul-2025
HD Live streaming from Space Station
objects crossing your sky now

STARLINK-1647

Track STARLINK-1647 now!
10-day predictions
STARLINK-1647 is classified as:


NORAD ID: 47978
Int'l Code: 2021-024B
Perigee: 553.4 km
Apogee: 555.2 km
Inclination: 53.1 °
Period: 95.6 minutes
Semi major axis: 6925 km
RCS: Unknown
Launch date: March 24, 2021
Source: United States (US)
Launch site: AIR FORCE EASTERN TEST RANGE (AFETR)
Your satellite tracking list
ATLAS 2A CENTAUR R/B
Track 1 satellite(s)




NASA's NSSDC Master Catalog

Two Line Element Set (TLE):
1 47978U 21024B   25199.70401319  .00001891  00000-0  14577-3 0  9991
2 47978  53.0561 307.0205 0001315  97.8094 262.3044 15.06403948239297
Source of the keplerian elements: AFSPC